Content
SEND FEEDBACK

Daily
Averages
Monthly
Summary
Honduras

AGUA SALADA, HONDURAS


Home > Central America > Honduras
Elevation: 3304 feet     Latitude: 14 01N     Longitude: 087 13W

WEATHER
 
SELECT A DAY
Number of Records: 54,671;   Date Range: 7/9/96 - 8/26/14
 
SHARE

PRINT THIS DATA

[ ← Previous Day ]
WEATHER ALMANAC - JANUARY 23, 2013
[ Next Day → ]
[ °C ]   °F
Weather ElementAverageHighLow
Temperature68.6 °F75.2 °F (1:00 pm)64 °F (6:00 am)
Dewpoint61.9 °F64.4 °F (10:00 pm)60 °F (6:00 pm)
Humidity79.3 %100 % (10:00 pm)55 % (3:00 pm)
Barometer30.15 in30.24 in (9:00 am)29.94 in (3:00 pm)
Wind Speed8.8 mph16.1 mph (3:00 pm)
Weather ElementAverage
Visibility6 mi
Wind DirectionSSE (161.3 °)

Weather ElementTotal
Precipitation---
Cooling Degree Days4.6 (Base 65)
Growing Degree Days19.6 (Base 50)
Averaged from 31 records on January 23, 2013
WEATHER CONDITIONS BREAKOUT
WIND DIRECTION BREAKOUT
WEATHER BY HOUR - JANUARY 23, 2013
[ °C ]   °F
Local TimeTemperatureDewpointHumidityBarometerVisibilityWind DirectionWind SpeedGust SpeedPrecipitationEventsConditions
12:00 AM64.4 °F62.6 °F94 %30.18 in6.2 miNNE (20°)6.9 mphMostly Cloudy
1:00 AM64.4 °F62.6 °F94 %30.18 in6.2 miNNE (30°)6.9 mphMostly Cloudy
2:00 AM64.4 °F62.6 °F94 %30.15 in6.2 miNNE (20°)8.1 mphMostly Cloudy
3:00 AM65.0 °F63.0 °F92 %30.02 in4.0 miNNE (20°)6.9 mphHaze
3:00 AM64.4 °F62.6 °F94 %30.15 inNorthMostly Cloudy
4:00 AM64.4 °F62.6 °F94 %30.15 in4.3 miNNE (20°)4.6 mphMostly Cloudy
5:00 AM64.4 °F62.6 °F94 %30.18 in4.3 miNorth (350°)9.2 mphMostly Cloudy
6:00 AM64.4 °F62.6 °F94 %30.18 in5.0 miNorth (360°)9.2 mphMostly Cloudy
6:00 AM64.0 °F62.0 °F92 %30.06 in5.0 miNorth9.2 mphHaze
7:00 AM64.4 °F60.8 °F88 %30.21 in6.2 miNorth (360°)5.8 mphScattered Clouds
8:00 AM68.0 °F62.6 °F83 %30.21 in6.2 miNorth (10°)9.2 mphMostly Cloudy
9:00 AM72.0 °F62.0 °F64 %30.07 in6.0 miNNW (340°)9.2 mphHaze
9:00 AM71.6 °F62.6 °F73 %30.24 in6.2 miNNW (340°)9.2 mphMostly Cloudy
10:00 AM71.6 °F62.6 °F73 %30.24 in6.2 miNNW (340°)9.2 mphMostly Cloudy
11:00 AM73.4 °F62.6 °F69 %30.21 in6.2 miNNE (20°)10.4 mphMostly Cloudy
12:00 PM73.4 °F60.8 °F65 %30.21 in6.2 miNorth (360°)13.8 mphMostly Cloudy
12:00 PM72.0 °F62.0 °F62 %30.04 in6.0 miNorth13.8 mphHaze
1:00 PM75.2 °F60.8 °F61 %30.18 in6.2 miNorth (360°)15.0 mphMostly Cloudy
2:00 PM73.4 °F60.8 °F65 %30.15 in6.2 miNorth (360°)15.0 mphMostly Cloudy
3:00 PM75.0 °F62.0 °F55 %29.94 in10.0 miNorth16.1 mphHaze
3:00 PM75.2 °F62.6 °F65 %30.12 in6.2 miNorth (360°)16.1 mphMostly Cloudy
4:00 PM73.4 °F60.8 °F65 %30.15 in6.2 miNorth (360°)13.8 mphMostly Cloudy
5:00 PM73.4 °F60.8 °F65 %30.15 in6.2 miNorth (360°)11.5 mphScattered Clouds
6:00 PM71.6 °F60.8 °F69 %30.15 in6.2 miNNE (30°)4.6 mphScattered Clouds
6:00 PM71.0 °F60.0 °F61 %29.99 in9.0 miCalm (30°)Haze
7:00 PM66.2 °F60.8 °F83 %30.18 in6.2 miNorth (10°)6.9 mphPartly Cloudy
8:00 PM64.4 °F60.8 °F88 %30.18 in6.2 miNNE (20°)2.3 mphScattered Clouds
9:00 PM66.0 °F61.0 °F80 %30.09 in6.0 miENE (70°)4.6 mphHaze
9:00 PM66.2 °F60.8 °F83 %30.21 in6.2 miENE (70°)4.6 mphScattered Clouds
10:00 PM64.4 °F64.4 °F100 %30.24 in3.7 miNorth (360°)8.1 mphLight Drizzle
11:00 PM64.4 °F64.4 °F100 %30.21 in4.3 miNNE (20°)4.6 mphMostly Cloudy
Hourly data recorded from MHTG, located miles away from Agua Salada, Honduras







STORIES FROM OUR PARTNERS